カタログに戻る

STARLINK-33866

運用中通信VLEO
NORAD 63653·PAYLOAD·🇺🇸 United States

打ち上げ Apr 25, 2025 から Cape Canaveral Space Force Station

Loading…

次のパス (今後24時間)

TLE

最新Source: CelesTrak SupGP

元期: Sep 15, 2026, 02:16 UTC

1 63653C 25083V   26258.09493056 -.00004522  00000+0 -16381-3 0  2584
2 63653  43.0040  15.7578 0001449 263.6157  18.3198 15.27579997    19

AllMySatでSTARLINK-33866をリアルタイム追跡

Download on the App Store